{"data":{"norad_id":54000,"intl_designator":"2022-125AN","name":"STARLINK-5088","alt_names":[],"object_type":"PAYLOAD","status":"ACTIVE","operator":null,"country":"US","launch_date":"2022-10-05","launch_site_code":"AFWTR","launch_vehicle":null,"mission":null,"orbit_class":"UNKNOWN","rcs_meters":null,"size_class":null,"mass_kg":null,"dimensions":null,"purposes":["comms"],"wikipedia_slug":null,"has_3d_model":false,"image_url":null,"decayed_at":null,"tle_current":{"epoch":"2026-09-20T21:12:21.206592Z","epoch_age_seconds":53563,"freshness":"FRESH","line1":"1 54000U 22125AN  26263.88357878 -.00001118  00000+0 -21955-4 0  9992","line2":"2 54000  53.1602  35.7760 0001460  74.9808 285.1356 15.34381405219234","mean_motion":15.34381405,"eccentricity":0.000146,"inclination_deg":53.1602,"raan_deg":35.776,"arg_perigee_deg":74.9808,"mean_anomaly_deg":285.1356,"bstar":-2.1955e-5,"rev_number":21923,"period_min":93.848895412024,"perigee_km":461.75973827966,"apogee_km":463.7572797683,"semimajor_km":6840.895509024,"source":"CELESTRAK","updated_at":"2026-09-21T09:00:33.072329Z"}}}